Starlink 31668

operational
NORAD ID: 59580 Int'l Des: 2024-076 Owner: SPXS Country: US Constellation: starlink
LEOCIRCULAR

关于 Starlink 31668

正在加载描述...

实时位置

正在加载3D地球...

即将过境

高度历史

Altitude vs Time

uPlot chart will show altitude changes over time

两行轨道根数

1 59580U 24076S 25352.38564247 .00000634 00000-0 32574-4 0 9990
2 59580 43.0061 107.7029 0001662 281.2322 78.8343 15.27577958 94073
Epoch: Dec 18, 2025 • Age: 33 hours

当前状态

高度 487.3 km
速度 7.63 km/s
星下点 43.14°N, 175.76°W
发射日期 Apr 23, 2024
运行时间 1.6 years
类型 internet

技术详情

分类 Payload
质量 730.00 kg
干质量 700.00 kg
总质量 730.00 kg
长度 0.30 m
直径 4.10 m
跨度 29.00 m
形状 Box + pan
制造商 SPXS
平台类型 Starlink V2M
阶段状态 In Orbit
所有者/国家 SPXS/US

大型星座

Loading constellations...